Change the Weather History Date:

Tuesday, October 4, 2011

  Actual Average Record
Temperature  
Mean Temperature 78 °F -  
Max Temperature 90 °F 89 °F 98 °F (1996)
Min Temperature 64 °F 67 °F 53 °F (2002)
Cooling Degree Days 13    
Growing Degree Days 28 (Base 50)    
Moisture  
Dew Point 50 °F    
Average Humidity 44    
Maximum Humidity 84    
Minimum Humidity 17    
Precipitation  
Precipitation 0.05 in - - ()
Sea Level Pressure  
Sea Level Pressure 29.78 in    
Wind  
Wind Speed 8 mph (SSW)    
Max Wind Speed 24 mph    
Max Gust Speed 37 mph    
Visibility 9 miles    
Events Rain , Thunderstorm    
Averages and records for this station are not official NWS values.
T = Trace of Precipitation, MM = Missing Value Source: NWS Daily Summary

Daily Weather History Graph

Daily Weather History Graph

Search for Another Location

Airport or City:

Trip Planner

Search our weather history database for the weather conditions in past years. The results will help you decide how hot, cold, wet, or windy it might be!

Date:

Astronomy

Oct. 04, 2011 Rise Set
Actual Time 6:24 AM MST 6:08 PM MST
Civil Twilight 5:59 AM MST 6:33 PM MST
Nautical Twilight 5:30 AM MST 7:01 PM MST
Astronomical Twilight 5:01 AM MST 7:30 PM MST
Moon 1:54 PM MST (10/4) No Moon Set
Length of Visible Light 12h 33m
Length of Day
11h 44m
First Quarter, 57% of the Moon is Illuminated
Oct 4
First Quarter
Oct 11
Full
Oct 19
Last Quarter
Oct 26
New
Nov 2
First Quarter

Hourly Weather History & Observations

Time (MST) Temp. Heat Index Dew Point Humidity Pressure Visibility Wind Dir Wind Speed Gust Speed Precip Events Conditions
12:53 AM 82.0 °F - 42.1 °F 24% 29.80 in 10.0 mi SE 3.5 mph - N/A   Scattered Clouds
1:53 AM 82.0 °F - 42.1 °F 24% 29.79 in 10.0 mi ESE 3.5 mph - N/A   Mostly Cloudy
2:53 AM 82.9 °F - 42.1 °F 24% 29.77 in 10.0 mi SE 4.6 mph - N/A   Clear
4:53 AM 79.0 °F - 48.9 °F 35% 29.78 in 10.0 mi South 4.6 mph - N/A   Clear
5:53 AM 75.9 °F - 48.9 °F 38% 29.79 in 10.0 mi SSE 3.5 mph - N/A   Clear
6:53 AM 75.9 °F - 48.9 °F 38% 29.80 in 10.0 mi Calm Calm - N/A   Clear
8:53 AM 82.9 °F - 48.9 °F 31% 29.79 in 10.0 mi SSE 11.5 mph - N/A   Clear
9:53 AM 84.9 °F - 46.0 °F 26% 29.78 in 10.0 mi South 12.7 mph - N/A   Partly Cloudy
10:53 AM 87.1 °F - 45.0 °F 23% 29.76 in 10.0 mi South 13.8 mph 20.7 mph N/A   Clear
11:53 AM 87.1 °F - 45.0 °F 23% 29.75 in 10.0 mi South 12.7 mph 20.7 mph N/A   Mostly Cloudy
12:53 PM 90.0 °F - 45.0 °F 21% 29.71 in 10.0 mi South 16.1 mph 24.2 mph N/A   Scattered Clouds
1:53 PM 90.0 °F - 39.9 °F 17% 29.67 in 4.0 mi SSW 13.8 mph 36.8 mph N/A   Haze
2:09 PM 89.6 °F - 39.2 °F 17% 29.75 in 5.0 mi SSW 21.9 mph 31.1 mph N/A   Haze
3:07 PM 84.2 °F - 51.8 °F 33% 29.75 in 10.0 mi SW 16.1 mph 21.9 mph N/A   Scattered Clouds
3:53 PM 82.0 °F 81.4 °F 55.0 °F 39% 29.69 in 10.0 mi WSW 10.4 mph - N/A   Overcast
5:53 PM 79.0 °F - 52.0 °F 39% 29.73 in 8.0 mi SW 11.5 mph 19.6 mph 0.00 in Rain Light Rain
6:03 PM 75.2 °F - 53.6 °F 47% 29.78 in 7.0 mi SSW 9.2 mph 24.2 mph 0.00 in Rain , Thunderstorm Light Thunderstorms and Rain
6:24 PM 77.0 °F - 53.6 °F 44% 29.81 in 10.0 mi WSW 17.3 mph 26.5 mph 0.00 in   Mostly Cloudy
6:37 PM 69.8 °F - 55.4 °F 60% 29.84 in 10.0 mi WSW 24.2 mph 35.7 mph 0.01 in Rain , Thunderstorm Light Rain
6:53 PM 66.0 °F - 57.0 °F 73% 29.77 in 10.0 mi WNW 11.5 mph 26.5 mph 0.02 in Rain , Thunderstorm Light Thunderstorms and Rain
7:22 PM 66.2 °F - 57.2 °F 73% 29.84 in 10.0 mi WSW 4.6 mph - 0.01 in Rain Light Rain
7:53 PM 66.0 °F - 60.1 °F 81% 29.81 in 10.0 mi NNE 9.2 mph - 0.03 in Rain , Thunderstorm Light Rain
8:09 PM 66.2 °F - 59.0 °F 78% 29.87 in 10.0 mi NNW 5.8 mph - 0.00 in Rain Light Rain
8:53 PM 66.0 °F - 59.0 °F 78% 29.82 in 10.0 mi NE 6.9 mph - 0.00 in   Scattered Clouds
9:53 PM 66.9 °F - 55.0 °F 66% 29.81 in 10.0 mi Calm Calm - N/A   Clear
10:53 PM 64.0 °F - 59.0 °F 84% 29.81 in 10.0 mi Calm Calm - N/A   Clear